STARLINK-1208, 45205

Orbit data source: Space-Track

STARLINK-1208, 45205 is a payload satellite owned by SpaceX/Seattle (US) in LEO that was launched on Mon, 17 Feb 2020 UTC via an FALCON 9 launch vehicle from the Air Force Eastern Test Range (AFETR). Payloads include a variety of satellites, spacecraft, and rockets equipped with specific instruments for various scientific and technological missions. These include communications satellites like Starlink; space stations such as the ISS; scientific satellites like the Hubble; Earth observation satellites from companies like Planet Labs, Umbra, and HawkEye 360; GPS; miniature CubeSats for education and research; and military/defense satellites.

Loading next visibility...
STARLINK-1208 details
Identifier
45205, 2020-012AD
Orbit
LEO
Last TLE update20 hours ago
Origin
Flag of USSpaceX/Seattle (US)
ManufacturerSpaceX/Seattle
MissionOperational Commercial Communications
Bus & MotorSTARLINK, Unknown motor
Mass260 kg wet, ~248 kg dry
Launch date (UTC)
2020-02-17 (5 years ago)
Launch vehicle
FALCON 9
Launch site
Air Force Eastern Test Range (AFETR)
Object type
Payload
Rocket body
Debris
Shape & HBRBox + 1 Pan, 8.86 m
Radar Cross Section13.562 m², Large (>1 m²)

Expand to show TLE details & history

TLE from 20 hours ago
0 STARLINK-1208
1 45205U 20012AD  24360.69852399  .00007301  00000-0  50820-3 0  9996
2 45205  53.0525 197.3262 0001411  87.4672 272.6479 15.06424941268974
Epoch: 2024-12-25T16:45Z
Definitive object data (Epoch: 2024-12-25T16:45:52.472Z)
Latitude0.00001°
Longitude-148.83096°
Altitude547.969 km
Speed7.589 km/s
True Right ascension13h 09m 18s
True Declination0° 00' 00"
Sunlit
Object was in daylight at TLE epoch
Visualization TLE readout
Latitude52.52534°
Longitude-49.83139°
Altitude552.526 km
Speed7.592 km/s
Apparent Right ascension21h 51m 59s
Apparent Declination10° 00' 53"
Sunlit
Object is in daylight
Visualization observer readout
Local Sidereal Time11:39:42
Azimuth32.621° NE
Elevation-34.182°
Doppler factor1
Orbital elements
Apogee altitude548.383 km
Perigee altitude546.429 km
Semi-major axis6,925.543 km
Eccentricity0.0001411
Inclination53.0525°
RAAN197.3262°
Arg. of periapsis87.4672°
True anomaly272.63175°
Mean anomaly272.6479°
Eccentric anomaly272.63982°
Mean motion3.76584 °/min
BSTAR0.0005082
Orbital period95.6 mins
Loading maneuver chart data...

STARLINK-1208 Visibility forecast

Observer location: undefined°, undefined

Span
Click to sort rows by Start time (UTC) header in descending order
Start Az.
Max El. time (UTC)
Max El. Az.
Max El.
End time (UTC)
End Az.
7 mins2024-12-26 15:12:12.721Z194.416° SSW2024-12-26 15:15:12.721Z146.736° SSE27.579°2024-12-26 15:19:12.721Z68.708° E
5 mins2024-12-26 16:53:12.721Z276.032° WNW2024-12-26 16:55:12.721Z330.83° NNW31.559°2024-12-26 16:58:12.721Z33.017° NE
6 mins2024-12-26 21:54:12.721Z329.771° NNW2024-12-26 21:57:12.721Z40.009° NE30.981°2024-12-26 22:00:12.721Z96.586° ESE
5 mins2024-12-26 23:34:12.721Z280.096° WNW2024-12-26 23:36:12.721Z235.706° WSW28.637°2024-12-26 23:39:12.721Z170.417° S
|